Flag for U.S.A. Weather past 2 weeks in Springfield, Illinois, U.S.A.

Now
25 °F

Clear.


Feels Like: 19 °F
Forecast: 27 / 42 °F
Wind: 5 mph from South

Location: Capital Airport

Current Time: Jan 30, 2015 at 7:25:00 PM

Latest Report: Jan 30, 2015 at 6:52 PM


Visibility: 10 mi

Pressure: 30.48 "Hg

Humidity: 78%

Dew point: 19 °F

Location of SpringfieldLocation

Historic Weather in Springfield — Graph

°F

Springfield temperature yesterday

Maximum temperature yesterday: 46 °F (at 3:52 AM)
Minimum temperature yesterday: 34 °F (at 9:52 PM)
Average temperature yesterday: 39 °F

Past Weeks' High & Low Weather Summary

 TemperatureHumidityPressure
High51 °F (Jan 17, 12:52 PM)100% (Jan 25, 7:52 AM)30.58 "Hg (Jan 25, 7:52 AM)
Low21 °F (Jan 26, 4:52 AM)48% (Jan 19, 1:52 PM)29.60 "Hg (Jan 25, 4:52 AM)
Average35 °F76%30.05 "Hg
* Reported Jan 15 5:52 PM — Jan 30 5:52 PM, Springfield, Weather by CustomWeather, © 2014

Note: Actual official high and low records may vary slightly from our data, if they occured in-between our weather recording intervals... More about our weather records

Advertising

Springfield weather history for previous 24 hours

 ConditionsComfort  
Time TempWeatherWind HumidityBarometerVisibility
5:52 PM
Jan 30
31 °FClear.No wind67%30.48 "Hg10 mi
4:52 PM33 °FSunny.5 mph61%30.48 "Hg10 mi
3:52 PM35 °FSunny.5 mph52%30.50 "Hg10 mi
2:52 PM36 °FSunny.No wind48%30.50 "Hg10 mi
1:52 PM36 °FSunny.No wind50%30.51 "Hg10 mi
12:52 PM34 °FSunny.5 mph52%30.52 "Hg10 mi
11:52 AM33 °FSunny.No wind54%30.55 "Hg10 mi
10:52 AM32 °FSunny.3 mph59%30.58 "Hg10 mi
9:52 AM30 °FSunny.8 mph61%30.58 "Hg10 mi
8:52 AM28 °FSunny.7 mph66%30.57 "Hg10 mi
7:52 AM25 °FSunny.6 mph75%30.56 "Hg10 mi
6:52 AM24 °FClear.8 mph75%30.55 "Hg10 mi
5:52 AM25 °FClear.9 mph75%30.52 "Hg10 mi
4:52 AM27 °FClear.10 mph69%30.51 "Hg10 mi
3:52 AM27 °FClear.10 mph72%30.49 "Hg10 mi
2:52 AM30 °FOvercast.12 mph64%30.47 "Hg10 mi
1:52 AM32 °FOvercast.16 mph64%30.47 "Hg10 mi
12:52 AM32 °FOvercast.15 mph64%30.43 "Hg10 mi
11:52 PM
Jan 29
34 °FOvercast.13 mph61%30.42 "Hg10 mi
10:52 PM34 °FOvercast.16 mph67%30.40 "Hg10 mi
9:52 PM34 °FOvercast.15 mph73%30.39 "Hg10 mi
8:52 PM35 °FOvercast.17 mph70%30.38 "Hg10 mi
7:52 PM35 °FOvercast.17 mph70%30.36 "Hg10 mi
Weather by CustomWeather, © 2014

See weather overviewHow to use our weather pages